Location: Haliburton Scout Reserve
(45.0900°N, 78.3200°W)
Time: 23:26:27
(UTC-04:00)

CAS-4A - Visible Passes

Search period start: 04 October 2023 00:00
Search period end: 14 October 2023 00:00
Orbit: 500 x 514 km, 43.0° (Epoch: 04 October)

Date Brightness Start Highest point End Pass type
(mag) Time Alt. Az. Time Alt. Az. Time Alt. Az.
04 Oct ? 20:08:32 10° WSW 20:12:20 56° S 20:13:48 33° ESE visible
04 Oct ? 21:47:49 10° W 21:48:32 15° W 21:48:32 15° W visible
05 Oct ? 19:48:30 10° WSW 19:52:19 57° S 19:54:41 21° E visible
05 Oct ? 21:27:48 10° W 21:29:24 23° W 21:29:24 23° W visible
06 Oct ? 19:28:26 10° WSW 19:32:16 59° S 19:35:30 14° E visible
06 Oct ? 21:07:45 10° W 21:10:14 35° WSW 21:10:14 35° WSW visible
07 Oct ? 19:08:20 10° WSW 19:12:10 60° S 19:16:00 10° E visible
07 Oct ? 20:47:40 10° W 20:51:01 51° SW 20:51:01 51° SW visible
08 Oct ? 20:27:33 10° W 20:31:21 53° SSW 20:31:47 50° SSE visible
09 Oct ? 20:07:23 10° W 20:11:11 51° SSW 20:12:32 34° SE visible
10 Oct ? 19:47:12 10° W 19:50:59 50° SSW 19:53:17 21° SE visible
10 Oct ? 21:27:11 10° WSW 21:28:00 14° WSW 21:28:00 14° WSW visible
11 Oct ? 19:26:59 10° W 19:30:44 48° SSW 19:34:04 12° ESE visible
11 Oct ? 21:07:03 10° WSW 21:08:48 16° SW 21:08:48 16° SW visible
12 Oct ? 19:06:43 10° W 19:10:28 46° SSW 19:14:11 10° ESE visible
12 Oct ? 20:46:53 10° WSW 20:49:21 16° SSW 20:49:38 16° SSW visible
13 Oct ? 20:26:43 10° WSW 20:29:00 15° SSW 20:30:31 12° S visible
